Showing default

COSMOS 2509, 40922

Orbit data source: Space-Track

COSMOS 2509, 40922 is a payload satellite owned by VVKO VKS (CIS) in LEO that was launched on Wed, 23 Sep 2015 UTC via an ROKOT launch vehicle from the Plesetsk Missile And Space Complex (PKMTR). Payload-class satellites include a variety of spacecraft equipped with specific instruments for various scientific and technological missions. These include communications satellites like Starlink; space stations such as the ISS; scientific satellites like the Hubble; Earth observation satellites from companies like Planet Labs, Umbra, and HawkEye 360; GPS; miniature CubeSats for education and research; and military/defense satellites.

Loading next visibility...
Identifier
40922, 2015-050C
Orbit
LEO
Country
Flag of CISCIS
Related business
Manufacturer
Resehetnev ISS
Mission
Operational Defense Communications
Bus & Motor
STRELA-3M, Unknown motor
Mass
280 kg wet, 280 kg dry
Launch date (UTC)
2015-09-23 (10 years ago)
Launch vehicle
ROKOT
Launch site
Plesetsk Missile And Space Complex (PKMTR)
Object type
Payload
Rocket body
Debris
Shape & HBR
Cyl + 1 Ant, 3.5 m
Radar Cross Section
1.583 m², Large (>1 m²)

Expand to show TLE details & history
Last TLE update: 15 hours ago

TLE from 15 hours ago
0 COSMOS 2509
1 40922U 15050C   25310.31494902  .00000062  00000-0  37908-3 0  9999
2 40922  82.4905 217.0710 0013939 164.9145 195.2353 12.42924731459191
Epoch: 2025-11-06T07:33Z
TLE epoch observation values (Epoch: 2025-11-06T07:33:31.595Z)
Latitude
-0.00002°
Longitude
57.91432°
Altitude
1,507.519 km
Speed
7.106 km/s
True Right ascension
14h 28m 17s
True Declination
0° 00' 00"
Sunlit
Object was in daylight at epoch
Visualization orbit readout
Latitude
Unknown
Longitude
Unknown
Altitude
Unknown
Speed
Unknown
Apparent Right ascension
Unknown
Apparent Declination
Unknown
Sunlit
N/A
Visualization observer readout
Local Sidereal Time
18:12:33
Azimuth
Unknown
Elevation
Unknown
Doppler factor
Unknown
Orbital elements
Apogee altitude
1,502.55 km
Perigee altitude
1,480.611 km
Semi-major axis
7,869.718 km
Eccentricity
0.00139
Inclination
82.4905°
RAAN
217.071°
Arg. of periapsis
164.9145°
True anomaly
195.1934°
Mean anomaly
195.2353°
Eccentric anomaly
195.21434°
Mean motion
3.10888 °/min
Orbital period
115.8 mins
BSTAR
0.00037908
Loading maneuver chart data...
Computing Atmospheric mass density...
Loading historical data...
Loading historical data...
Loading historical data...
Loading historical data...
Loading historical data...
Loading historical data...
Loading historical data...
Other satellites on launch #50 in the year 2015 (2015-09-23 UTC)

Documentation

Showing up to 5 results
|